Location: Voyageurs National Park
(48.5020°N, 92.9292°W)
Time: 14:29:21
(UTC-05:00)

Daily predictions for brighter satellites

Satellite Brightness Start Highest point End
(mag) Time Altitude Azimuth Time Altitude Azimuth Time Altitude Azimuth
Cosmos 1777 Rocket 4.1 21:49:44 10° S 21:54:55 62° ESE 22:00:07 10° NNE
Cosmos 1437 3.7 21:53:43 10° SSE 21:56:40 31° E 21:59:38 10° NNE
Cosmos 1743 Rocket 4.2 21:52:26 10° SSW 21:56:52 63° WNW 22:01:18 10° N
deb Chang Zheng 4 4.1 21:57:01 10° N 22:01:20 66° WNW 22:05:38 10° SSW
MetOp-A 4.2 21:56:33 10° SSE 22:01:55 89° WSW 22:07:19 10° NNW
ARGOS 3.4 21:56:45 10° SSE 22:02:03 58° ENE 22:07:20 10° N
BREEZE-M DEB (TANK) 1.6 22:01:06 10° W 22:03:15 73° N 22:05:28 10° E
Cosmos 1500 Rocket 3.8 21:59:12 10° SSW 22:03:34 76° W 22:08:01 10° N
ATLAS 3B R/B 4.3 21:58:52 10° NW 22:05:12 30° NNE 22:11:10 10° E
H-2A R/B 3.1 22:01:20 10° SE 22:06:08 35° ENE 22:11:02 10° N
Cosmos 2219 3.9 22:05:23 10° S 22:10:31 35° ESE 22:15:40 10° NE
ATLAS CENTAUR R/B 4.0 22:08:45 10° WNW 22:10:58 14° WSW 22:13:06 10° SW
Cosmos 1271 Rocket 4.2 22:08:27 10° NNE 22:11:34 23° ENE 22:14:41 10° ESE
NOSS 3-1 (C) 4.4 22:07:47 10° SSE 22:12:35 26° ESE 22:17:45 10° ENE
Cosmos 1441 Rocket 4.0 22:08:54 10° SSW 22:12:37 54° WNW 22:16:20 10° N
SL-08 RB Rocket 3.9 22:09:01 10° SSE 22:13:23 57° ENE 22:17:49 10° N
PSLV R/B 4.2 22:11:33 10° S 22:14:30 43° W 22:17:28 10° NNW
Cosmos 2322 3.9 22:09:04 10° NNW 22:14:48 75° WSW 22:20:29 10° SSE
Cosmos 2237 Rocket 3.6 22:12:27 10° NNW 22:17:21 28° NE 22:22:15 10° ESE
SPOT 1/Viking Rocket 3.6 22:12:53 10° SSE 22:18:01 89° ENE 22:23:14 10° NNW
Cosmos 1726 2.8 22:15:31 10° N 22:19:07 40° ENE 22:22:28 11° SE
Cosmos 1680 Rocket 3.7 22:14:02 10° NNW 22:19:17 76° WSW 22:24:31 10° SSE
Cosmos 2322 Rocket 4.0 22:15:51 10° NW 22:20:25 26° WSW 22:24:59 10° SSW
Cosmos 304 Rocket 4.2 22:23:07 10° NNW 22:27:53 60° WSW 22:32:36 10° S
AVUM R/B 2.4 22:26:44 10° SSW 22:29:06 86° ESE 22:31:42 10° NNE
USA 245 2.7 22:26:32 10° S 22:29:11 55° WSW 22:31:31 10° NNW
SL-16 R/B 4.1 22:25:16 10° NW 22:29:43 24° WSW 22:34:08 10° SSW
Cosmos 2360 Rocket 2.7 22:26:10 10° NW 22:31:40 55° WSW 22:37:10 10° S
CZ-4B R/B 3.6 22:26:24 10° NNE 22:31:44 82° ESE 22:36:58 10° SSW
Cosmos 2315 Rocket 4.1 22:29:14 10° NNW 22:35:28 79° W 22:41:39 10° S
NOAA 11 4.3 22:31:32 10° SSE 22:36:58 81° WSW 22:42:28 10° NNW
Cosmos 1898 Rocket 4.2 22:33:17 10° SSE 22:37:50 33° ESE 22:42:28 10° NE
Landsat 7 3.9 22:35:02 12° SSE 22:39:25 74° ENE 22:44:11 10° N
Meteor 1-11 4.4 22:34:33 10° S 22:40:13 62° E 22:45:54 10° NNE
CARTOSAT-1 3.9 22:37:19 14° SSE 22:40:57 56° ENE 22:45:12 10° N
Cosmos 1633 Rocket 3.3 22:42:16 12° S 22:46:11 52° E 22:50:27 10° NNE
Sich 1 3.2 22:42:31 11° S 22:46:37 56° E 22:50:56 10° NNE
Spot 4 4.3 22:44:36 14° SE 22:48:32 53° ENE 22:53:16 10° N
Cosmos 292 Rocket 3.9 22:45:56 10° NNW 22:50:41 64° ENE 22:54:23 16° SE
Cosmos 1674 4.4 22:48:20 10° SW 22:51:50 33° WNW 22:55:23 10° N
Cosmos 2151 3.9 22:49:09 10° SSW 22:53:14 49° WNW 22:57:20 10° N
USA 229 DEB 4.0 22:48:00 10° SW 22:54:57 76° NW 23:02:02 10° NE
USA 229 4.0 22:48:06 10° SW 22:55:03 77° NW 23:02:08 10° NE
Meteor 2-10 4.4 22:49:37 10° N 22:55:17 65° ENE 22:59:52 16° SSE
Terra 1.9 22:51:23 15° SSE 22:55:17 75° ENE 23:00:03 10° N
Meteor 1-4 Rocket 2.6 22:52:05 10° N 22:55:54 75° ENE 22:58:33 18° SSE
Cosmos 1300 3.2 22:53:00 10° NNW 22:56:48 56° W 23:00:11 12° S
Cosmos 1805 Rocket 3.8 22:55:02 10° SSW 22:59:29 72° W 23:03:57 10° N
Cosmos 2227 Rocket 3.4 22:57:46 16° SE 23:00:43 24° ESE 23:05:11 10° NE
Cosmos 1626 3.5 22:59:43 18° SE 23:01:29 25° E 23:04:37 10° NNE
CZ-4 R/B 4.1 22:56:34 10° NNE 23:01:35 75° WNW 23:06:27 10° SSW
USA 32 4.0 22:56:47 10° N 23:02:06 86° E 23:06:29 15° S
SeaSat 1 3.4 22:58:28 12° ESE 23:02:39 41° NE 23:07:16 10° NNW
Cosmos 2333 Rocket 2.6 22:56:57 10° NNW 23:02:39 60° ENE 23:07:11 16° SE
Nadezhda 1 Rocket 4.0 23:01:41 10° N 23:07:45 69° E 23:12:27 18° SSE
SL-16 R/B 3.5 23:03:31 10° NNW 23:08:34 31° NE 23:13:36 10° ESE
Lacrosse 4 Rocket 3.4 23:06:49 10° NNW 23:10:22 23° NE 23:13:58 10° E
CZ-4C R/B 3.9 23:07:41 14° S 23:10:24 43° W 23:13:45 10° NNW
Cosmos 1869 4.0 23:07:11 10° N 23:11:04 42° ENE 23:13:24 21° SE
COSMOS 2428 3.3 23:08:43 10° NW 23:14:13 51° WSW 23:18:35 16° S
NOSS 3-1 (A) 3.6 23:08:44 10° SSW 23:14:27 51° ESE 23:20:49 10° NE
Cosmos 1455 2.3 23:16:05 10° N 23:19:52 63° E 23:21:57 25° SSE
Cosmos 1666 Rocket 4.1 23:17:13 10° SSW 23:21:32 58° WNW 23:25:57 10° N
Cosmos 1745 Rocket 4.0 23:17:11 14° S 23:22:39 79° E 23:28:51 10° N
Cosmos 2058 4.3 23:20:27 10° SW 23:24:16 37° WNW 23:28:06 10° N
CZ-4C R/B 4.5 23:21:39 10° NW 23:27:12 28° NNE 23:33:20 10° E
Cosmos 2297 Rocket 3.2 23:25:45 20° SE 23:28:16 28° ESE 23:32:59 10° NE
Cosmos 2298 Rocket 4.1 23:23:06 10° SSW 23:28:26 84° WNW 23:33:48 10° NNE
Cosmos 1709 Rocket 4.5 23:27:28 20° SSE 23:31:18 44° E 23:37:03 10° NNE
COS B Rocket 4.3 23:30:35 10° NNE 23:33:45 29° E 23:35:12 23° ESE
Cosmos 1703 Rocket 4.4 23:30:38 10° N 23:34:44 39° ENE 23:37:00 22° SE
Cosmos 2219 Rocket 2.3 23:29:12 10° NNW 23:34:46 67° WSW 23:38:24 22° S
Cosmos 1470 Rocket 3.4 23:31:55 21° S 23:34:47 83° E 23:39:08 10° N
Cosmos 1933 Rocket 3.5 23:33:20 21° S 23:36:19 83° E 23:40:48 10° N
COSMOS 2455 3.4 23:31:24 10° NNW 23:37:20 54° NE 23:42:06 16° ESE
ATLAS 2AS CENTAUR R/B 3.6 23:32:38 19° SSE 23:37:20 37° ESE 23:44:31 10° NE
GEOS 3 Rocket 3.7 23:35:40 18° SE 23:39:34 74° NE 23:44:46 10° NW
Okean 1-7 4.3 23:36:20 10° N 23:40:05 28° ENE 23:42:15 19° ESE
Cosmos 1937 Rocket 3.4 23:36:51 15° SSW 23:41:16 81° ESE 23:46:30 10° NNE
Cosmos 220 Rocket 4.0 23:38:58 20° SSW 23:42:01 77° ESE 23:46:29 10° NNE
H-2A R/B 3.1 23:41:19 14° SSW 23:45:28 40° W 23:50:34 10° NNW
Cosmos 1703 3.9 23:42:49 16° SSW 23:45:48 52° WNW 23:49:39 10° N
Cosmos 2181 Rocket 4.2 23:40:23 10° N 23:46:42 64° ENE 23:50:50 23° SSE
Cosmos 1271 Rocket 4.2 23:44:18 10° NNW 23:47:39 30° W 23:50:04 16° SW
Cosmos 1980 3.8 23:42:47 10° NNW 23:48:26 72° WSW 23:51:50 25° SSE
Cosmos 1269 Rocket 4.2 23:47:45 10° NNW 23:53:05 67° ENE 23:56:14 24° SE
Cosmos 1386 Rocket 4.4 23:49:17 18° S 23:53:55 83° W 23:59:59 10° N
Cosmos 389 Rocket 3.9 23:51:00 10° N 23:54:13 29° ENE 23:55:35 22° ESE
